TimeEST,TemperatureF,Dew PointF,Humidity,Sea Level PressureIn,VisibilityMPH,Wind Direction,Wind SpeedMPH,Gust SpeedMPH,PrecipitationIn,Events,Conditions,WindDirDegrees,DateUTC
12:02 AM,23.0,14.0,68,30.29,10.0,SW,5.8,-,N/A,,Clear,230,2013-01-05 05:02:00
12:22 AM,21.2,14.0,74,30.29,10.0,SW,5.8,-,N/A,,Clear,230,2013-01-05 05:22:00
12:41 AM,21.2,15.8,80,30.29,10.0,WSW,5.8,-,N/A,,Clear,240,2013-01-05 05:41:00
1:02 AM,21.2,14.0,74,30.29,10.0,SW,4.6,-,N/A,,Clear,230,2013-01-05 06:02:00
1:22 AM,21.2,14.0,74,30.29,10.0,WSW,6.9,-,N/A,,Clear,240,2013-01-05 06:22:00
1:41 AM,19.4,14.0,80,30.30,10.0,SW,5.8,-,N/A,,Clear,220,2013-01-05 06:41:00
2:02 AM,19.4,15.8,86,30.30,10.0,WSW,5.8,-,N/A,,Clear,240,2013-01-05 07:02:00
2:22 AM,21.2,15.8,80,30.30,10.0,SW,4.6,-,N/A,,Clear,230,2013-01-05 07:22:00
2:41 AM,19.4,15.8,86,30.30,10.0,SW,3.5,-,N/A,,Clear,220,2013-01-05 07:41:00
3:02 AM,17.6,14.0,86,30.30,10.0,SSW,3.5,-,N/A,,Clear,200,2013-01-05 08:02:00
3:22 AM,17.6,14.0,86,30.31,10.0,SSW,5.8,-,N/A,,Clear,210,2013-01-05 08:22:00
3:41 AM,14.0,12.2,93,30.32,10.0,SSW,4.6,-,N/A,,Clear,210,2013-01-05 08:41:00
4:02 AM,15.8,14.0,93,30.31,10.0,SSW,3.5,-,N/A,,Clear,200,2013-01-05 09:02:00
4:22 AM,15.8,14.0,93,30.30,7.0,South,3.5,-,N/A,,Clear,180,2013-01-05 09:22:00
4:41 AM,12.2,10.4,92,30.30,7.0,Calm,Calm,-,N/A,,Clear,0,2013-01-05 09:41:00
5:02 AM,15.8,14.0,93,30.31,7.0,SSW,3.5,-,N/A,,Clear,210,2013-01-05 10:02:00
5:22 AM,17.6,14.0,86,30.32,10.0,SW,5.8,-,N/A,,Clear,220,2013-01-05 10:22:00
5:41 AM,17.6,14.0,86,30.31,10.0,SSW,4.6,-,N/A,,Clear,210,2013-01-05 10:41:00
6:02 AM,17.6,14.0,86,30.32,7.0,Calm,Calm,-,N/A,,Clear,0,2013-01-05 11:02:00
6:21 AM,17.6,15.8,93,30.32,7.0,SSW,4.6,-,N/A,,Clear,200,2013-01-05 11:21:00
6:42 AM,15.8,14.0,93,30.33,7.0,South,3.5,-,N/A,,Clear,190,2013-01-05 11:42:00
7:02 AM,14.0,14.0,100,30.33,4.0,Calm,Calm,-,N/A,,Clear,0,2013-01-05 12:02:00
7:21 AM,15.8,14.0,93,30.33,4.0,Calm,Calm,-,N/A,,Clear,0,2013-01-05 12:21:00
7:42 AM,14.0,12.2,93,30.34,2.5,South,5.8,-,N/A,,Clear,180,2013-01-05 12:42:00
8:02 AM,12.2,10.4,92,30.34,3.0,South,3.5,-,N/A,,Clear,180,2013-01-05 13:02:00
8:21 AM,14.0,12.2,93,30.35,2.0,South,3.5,-,N/A,,Clear,170,2013-01-05 13:21:00
8:42 AM,14.0,12.2,93,30.34,2.0,SSE,5.8,-,N/A,,Clear,160,2013-01-05 13:42:00
9:02 AM,17.6,14.0,86,30.33,4.0,South,4.6,-,N/A,,Clear,170,2013-01-05 14:02:00
9:21 AM,17.6,14.0,86,30.32,5.0,SSE,4.6,-,N/A,,Clear,160,2013-01-05 14:21:00
9:42 AM,17.6,17.6,100,30.32,5.0,South,4.6,-,N/A,,Clear,170,2013-01-05 14:42:00
10:02 AM,19.4,17.6,93,30.32,7.0,Calm,Calm,-,N/A,,Clear,0,2013-01-05 15:02:00
10:21 AM,21.2,19.4,93,30.33,7.0,South,4.6,-,N/A,,Clear,180,2013-01-05 15:21:00
11:02 AM,26.6,21.2,80,30.33,10.0,SSW,9.2,-,N/A,,Clear,210,2013-01-05 16:02:00
11:21 AM,28.4,21.2,74,30.32,10.0,SSW,8.1,-,N/A,,Clear,210,2013-01-05 16:21:00
12:02 PM,30.2,23.0,75,30.30,10.0,SSW,9.2,-,N/A,,Clear,200,2013-01-05 17:02:00
12:21 PM,30.2,23.0,75,30.29,10.0,SSW,9.2,-,N/A,,Clear,210,2013-01-05 17:21:00
12:42 PM,30.2,23.0,75,30.28,10.0,SSW,6.9,-,N/A,,Clear,210,2013-01-05 17:42:00
1:02 PM,32.0,23.0,69,30.25,10.0,South,6.9,-,N/A,,Clear,190,2013-01-05 18:02:00
1:21 PM,32.0,23.0,69,30.24,10.0,SSW,6.9,-,N/A,,Clear,200,2013-01-05 18:21:00
1:42 PM,33.8,24.8,70,30.24,10.0,SSW,4.6,-,N/A,,Clear,200,2013-01-05 18:42:00
2:02 PM,33.8,23.0,65,30.23,10.0,SSW,10.4,-,N/A,,Clear,210,2013-01-05 19:02:00
2:21 PM,33.8,24.8,70,30.21,10.0,SSW,6.9,-,N/A,,Clear,200,2013-01-05 19:21:00
2:42 PM,33.8,23.0,65,30.20,10.0,South,9.2,-,N/A,,Clear,180,2013-01-05 19:42:00
3:02 PM,33.8,23.0,65,30.20,10.0,SSW,11.5,-,N/A,,Clear,200,2013-01-05 20:02:00
3:21 PM,33.8,23.0,65,30.20,10.0,SSW,12.7,-,N/A,,Clear,200,2013-01-05 20:21:00
3:42 PM,33.8,23.0,65,30.19,10.0,SSW,6.9,-,N/A,,Clear,210,2013-01-05 20:42:00
4:02 PM,33.8,24.8,70,30.19,10.0,SW,9.2,-,N/A,,Clear,220,2013-01-05 21:02:00
4:21 PM,33.8,24.8,70,30.19,10.0,SSW,8.1,-,N/A,,Mostly Cloudy,210,2013-01-05 21:21:00
4:42 PM,33.8,26.6,75,30.18,10.0,SSW,9.2,-,N/A,,Overcast,200,2013-01-05 21:42:00
5:02 PM,33.8,26.6,75,30.19,10.0,SSW,8.1,-,N/A,,Overcast,200,2013-01-05 22:02:00
5:21 PM,33.8,26.6,75,30.18,10.0,SSW,9.2,-,N/A,,Overcast,200,2013-01-05 22:21:00
6:02 PM,32.0,26.6,80,30.18,10.0,SSW,6.9,-,N/A,,Overcast,200,2013-01-05 23:02:00
6:21 PM,33.8,26.6,75,30.20,10.0,SSW,8.1,-,N/A,,Overcast,200,2013-01-05 23:21:00
6:42 PM,33.8,26.6,75,30.19,10.0,SSW,10.4,-,N/A,,Overcast,200,2013-01-05 23:42:00
7:02 PM,33.8,26.6,75,30.18,10.0,SSW,9.2,-,N/A,,Overcast,200,2013-01-06 00:02:00
7:21 PM,33.8,26.6,75,30.17,10.0,SSW,9.2,-,N/A,,Overcast,200,2013-01-06 00:21:00
7:42 PM,33.8,26.6,75,30.17,10.0,SSW,8.1,-,N/A,,Overcast,210,2013-01-06 00:42:00
8:02 PM,33.8,26.6,75,30.16,10.0,SSW,6.9,-,N/A,,Mostly Cloudy,210,2013-01-06 01:02:00
8:21 PM,33.8,26.6,75,30.16,10.0,SSW,8.1,-,N/A,,Mostly Cloudy,210,2013-01-06 01:21:00
9:02 PM,33.8,26.6,75,30.16,10.0,SSW,8.1,-,N/A,,Overcast,210,2013-01-06 02:02:00
9:21 PM,33.8,26.6,75,30.15,10.0,SSW,8.1,-,N/A,,Overcast,210,2013-01-06 02:21:00
9:42 PM,33.8,26.6,75,30.15,10.0,SSW,9.2,-,N/A,,Overcast,210,2013-01-06 02:42:00
10:02 PM,32.0,26.6,80,30.15,10.0,SSW,6.9,-,N/A,,Overcast,210,2013-01-06 03:02:00
10:21 PM,32.0,26.6,80,30.15,10.0,SSW,5.8,-,N/A,,Overcast,210,2013-01-06 03:21:00
10:42 PM,32.0,26.6,80,30.15,10.0,SW,5.8,-,N/A,,Overcast,230,2013-01-06 03:42:00
11:01 PM,32.0,26.6,80,30.15,10.0,SW,5.8,-,N/A,,Overcast,230,2013-01-06 04:01:00
11:22 PM,32.0,26.6,80,30.15,10.0,SW,5.8,-,N/A,,Overcast,220,2013-01-06 04:22:00
11:42 PM,32.0,26.6,80,30.14,10.0,SW,6.9,-,N/A,,Overcast,220,2013-01-06 04:42:00